Regional Weather Roundup
Issued by NWS

Home | Current Version | Previous Version | Text Only | Print | Product List | Glossary Off
Versions: 1 2 3 4 5 6 7 8 9 10 11 12 13 14 15 16 17 18 19 20 21 22 23 24 25 26 27 28 29 30 31 32 33 34 35 36 37 38 39 40 41 42 43 44 45 46 47 48 49 50

000
ASUS43 KMKX 140759
RWRWI

WISCONSIN REGIONAL WEATHER ROUNDUP
NATIONAL WEATHER SERVICE MILWAUKEE/SULLIVAN WI
200 AM CST THU DEC 14 2017

NOTE: "FAIR" INDICATES FEW OR NO CLOUDS BELOW 12,000 FEET WITH NO
SIGNIFICANT WEATHER AND/OR OBSTRUCTIONS TO VISIBILITY.

WIZ001-002-006>008-014>016-023>028-140900-
NORTHWEST WISCONSIN

CITY           SKY/WX    TMP DP  RH WIND       PRES   REMARKS
SUPERIOR ARPT  CLEAR      2  -1  86 CALM      29.97S
ASHLAND        CLEAR      6   2  83 CALM      29.94F
HAYWARD        CLOUDY    19  13  77 CALM      29.92S
SIREN          CLOUDY    16  15  93 W3        29.95S
CUMBERLAND     PTCLDY     7   5  92 CALM      29.93S
RICE LAKE      PTCLDY    12  10  95 CALM      29.95S
CHETEK         CLOUDY    16  13  91 CALM      29.95R
LADYSMITH      CLOUDY     7   4  89 N6        29.94R WCI  -3
EAU CLAIRE     NOT AVBL
MENOMONIE      CLOUDY    11   9  89 SW5       29.97R WCI   3
NEW RICHMOND   CLOUDY     7   3  86 CALM      29.97S
OSCEOLA        CLOUDY    13  13 100 CALM      30.00S
$$

WIZ003>005-009-010-017-018-140900-
NORTH CENTRAL WISCONSIN

CITY           SKY/WX    TMP DP  RH WIND       PRES   REMARKS
MANITOWISH WTR FLURRIES  11  10  95 CALM      29.85R
ARBOR VITAE    FLURRIES  17  13  84 NW5       29.84R WCI  10
WOODRUFF       FLURRIES  17  13  84 NW5       29.84R WCI  10
RHINELANDER    CLOUDY     6   2  83 CALM      29.86R
EAGLE RIVER    FLURRIES  12   6  77 NW3       29.83R
LAND O LAKES   FLURRIES  13   9  82 W3        29.85R
PHILLIPS       CLOUDY    10   9  93 CALM      29.87S
TOMAHAWK       CLOUDY     9   7  89 CALM      29.88R
MEDFORD        FLURRIES   7   4  88 NW3       29.87R
MERRILL        MOCLDY    12   9  87 CALM      29.88R
$$

WIZ029-030-035-036-043>047-140900-
CENTRAL WISCONSIN

CITY           SKY/WX    TMP DP  RH WIND       PRES   REMARKS
WAUSAU         MOCLDY    10   8  92 NW5       29.88R WCI   2
MOSINEE        CLOUDY    10  10 100 CALM      29.89R
MARSHFIELD     CLOUDY     9   6  88 NW8       29.91R WCI  -3
STEVENS POINT  CLOUDY     0  -2  91 CALM      29.91R
WAUPACA        MOCLDY     9   6  84 W3        29.91R
WAUTOMA        CLOUDY     3   1  91 NW5       29.94R WCI  -6
WISC RAPIDS    CLOUDY     7   4  87 CALM      29.94R
CAMP DOUGLAS   CLEAR      9   6  87 W6        29.95R WCI   0
$$

WIZ011>013-019>022-031-037>040-048>050-140900-
NORTHEAST WISCONSIN

CITY           SKY/WX    TMP DP  RH WIND       PRES   REMARKS
ANTIGO         FLURRIES  12  10  89 NW3       29.84R
SHAWANO        FLURRIES  12   8  85 NW3       29.89R
OCONTO         CLOUDY    -3  -7  85 CALM      29.89R
STURGEON BAY   CLOUDY    19  11  70 N18       29.86S WCI   4
GREEN BAY      CLOUDY     7   3  84 NW9       29.90R WCI  -7
MANITOWOC      CLOUDY     7   5  91 NW7       29.89R WCI  -5
APPLETON       MOCLDY    10   5  79 NW9       29.87R WCI  -2
CLINTONVILLE   MOCLDY     9   3  78 W3        29.90R
OSHKOSH        CLOUDY    10   7  87 W7        29.90R WCI  -1
$$

WIZ032>034-041-042-053>061-140900-
SOUTHWEST WISCONSIN

CITY           SKY/WX    TMP DP  RH WIND       PRES   REMARKS
LA CROSSE      PTCLDY    10   7  87 N5        29.99R WCI   2
SPARTA         CLEAR      5   2  90 CALM      29.97R
VIROQUA        PTCLDY    12  12  97 CALM      29.92R
BOSCOBEL       PTCLDY    15  10  80 CALM      29.98R
PRAIRIE DU CHI PTCLDY    19  12  75 CALM      29.98R
PLATTEVILLE    CLEAR     17  13  84 N7        29.94R WCI   7
$$

WIZ056-057-062-063-064-067-068-140900-
SOUTH CENTRAL WISCONSIN

CITY           SKY/WX    TMP DP  RH WIND       PRES   REMARKS
REEDSBURG      CLEAR     15  11  83 CALM      29.94R
BARABOO/DELLS  CLEAR     13  10  87 W3        29.92R
LONE ROCK      NOT AVBL
MINERAL POINT  PTCLDY    19  14  79 N6        29.92R WCI  11
MADISON        CLEAR     12   8  84 NW5       29.93R WCI   4
MIDDLETON      CLEAR     15  11  84 N5        29.93R WCI   7
WATERTOWN      CLOUDY    12   8  85 NW6       29.90R WCI   2
MONROE         CLEAR     18  10  73 N7        29.91R WCI   8
JANESVILLE     CLEAR     18  10  73 N7        29.91R WCI   8
$$

WIZ051-052-058>065-066-070>072-140900-
SOUTHEAST WISCONSIN

CITY           SKY/WX    TMP DP  RH WIND       PRES   REMARKS
MILWAUKEE      CLEAR     17  10  74 NW9       29.88R WCI   6
WAUKESHA       CLEAR     10   7  85 NW8       29.89R WCI  -1
MILWAUKEE/TIMM CLEAR     14   9  79 N10       29.88R WCI   1
RACINE         CLEAR     17  10  74 NW8       29.89R WCI   7
BURLINGTON     CLEAR     14  11  90 NW7       29.88R WCI   3
KENOSHA        CLEAR     16   8  71 NW10      29.87R WCI   4
FOND DU LAC    CLOUDY     7   3  84 W3        29.91R
SHEBOYGAN      CLOUDY     9   7  92 NW7       29.89R WCI  -2
WEST BEND      CLEAR     10   9  92 NW7       29.88R WCI   0
JUNEAU         CLOUDY    10   6  82 CALM      29.91R
$$

LSZ147-162-140900-
LAKE SUPERIOR

STATION/POSITION TIME  TEMP    WIND        PRES    WAVE
                       AIR SEA DIR/SP/G            HT/PER
                 (UTC) (F)     (DEG/KT/KT) (MB)    (FT/S)
DEVILS ISLAND    0700   17     340/ 10/ 12 1015.0F
SAXON HARBOR     0740   21                 1013.2R
$$

LMZ867-665-643>646-140900-
LAKE MICHIGAN

STATION/POSITION TIME  TEMP    WIND        PRES    WAVE
                       AIR SEA DIR/SP/G            HT/PER
                 (UTC) (F)     (DEG/KT/KT) (MB)    (FT/S)
NORTHPORT PIER   0740   22     340/ 17/ 22 1011.2R
KEWAUNEE LAKESHO 0730   11     300/  5/  5 1010.8R
SHEBOYGAN LAKESH 0700   16     310/ 15/ 20 1012.0R
PORT WASHINGTON  0730   14     310/  8/ 11 1012.9R
MILWAUKEE LAKESH 0730   18     330/ 12/ 16   N/A
KENOSHA   LAKESH 0700   20     330/ 15/ 19 1011.2
$$

TC  - TEMPERATURE IN CELSIUS
VSB - VISIBILITY IN STATUTE MILES
WCI - WIND CHILL INDEX
HX  - HEAT INDEX





USA.gov is the U.S. government's official web portal to all federal, state and local government web resources and services.